Weather in Staraya Sinyava

Ukraine / Khmelnitsky District     49°35′45″N   27°37′23″E
temp.,
°C
wind,
m/s
gust,
m/s
humid.,
%
clouds,
%
prec.,
mm/h
press.,
hPa
HPBL,
m
10 april, sat
sat1000:00+2s346212 0.0 102651
03:00+1s37645 0.0 1026108
06:000s4106839 0.0 1025174
09:00+5s611535 0.0 1025524
12:00+9s78425 0.0 10241232
15:00+11ssw66365 0.0 10231553
18:00+11s45405 0.0 10231392
21:00+6s36540 0.0 102573
11 april, sun
sun1100:00+4s47620 0.0 1026115
03:00+3s38660 0.0 1026125
06:00+3s35670 0.0 102776
09:00+7s47540 0.0 1027291
12:00+12sse67390 0.0 10271103
15:00+13sse56350 0.0 10261386
18:00+13se45400 0.0 10251341
21:00+7se48580 0.0 1027134
12 april, mon
mon1200:00+5se37611 0.0 102799
03:00+4se366441 0.0 102692
06:00+3se34660 0.0 102563
09:00+8se35550 0.0 1024238
12:00+13sse34405 0.0 10231023
15:00+15se33374 0.0 10201394
18:00+15sse22390 0.0 10191304
21:00+10se33565 0.0 102024
13 april, tue
tue1300:00+8sse226121 0.0 102020
03:00+7s22655 0.0 102010
06:00+6se22675 0.0 101912
09:00+11se34575 0.0 1019220
12:00+16sse34425 0.0 10181127
15:00+17sse333752 0.0 10161622
18:00+17se34405 0.0 10151688
21:00+11se356690 0.0 101675
14 april, wed
wed1400:00+11sse3783100 0.0 1015191
03:00+10se3784100 0.0 1014275
06:00+9se3783100 0.0 1014256
09:00+9se4881100 0.0 1013396
12:00+13sse685298 0.0 10131032
15:00+13sse7850100 0.0 10121799
18:00+10se4881100 0.6 1012740
21:00+9se61081100 1.7 10121138